Weather in Krutoye

Russia / Astrakhan Oblast     46°15′58″N   48°38′19″E
temp.,
°C
wind,
m/s
gust,
m/s
humid.,
%
clouds,
%
prec.,
mm/h
press.,
hPa
HPBL,
m
1 august, sun
sun101:00+23s226298 0.0 101213
04:00+22wsw11635 0.0 101111
07:00+25ene114932 0.0 101271
10:00+33se34245 0.0 10121252
13:00+35sse642226 0.3 10111780
16:00+35s3327100 1.5 10111135
19:00+33s4425100 0.0 1010366
22:00+26s33385 0.0 101123
2 august, mon
mon201:00+25sw11395 0.0 101111
04:00+26nne1135100 0.0 101111
07:00+28ne232987 0.0 101291
10:00+36e44175 0.0 1012996
13:00+39se661298 0.0 10122485
16:00+38se6612100 0.0 10111536
19:00+34se3520100 0.0 1011253
22:00+27sse223995 0.0 101112
3 august, tue
tue301:00+26ssw224217 0.0 101112
04:00+25nw00375 0.0 101111
07:00+29nne23255 0.0 101265
10:00+38e341014 0.0 10111125
13:00+41sse65922 0.0 10113548
16:00+41sse5483 0.0 10103789
19:00+36sse46150 0.0 1010239
22:00+28ssw34240 0.0 101038
4 august, wed
wed401:00+26wsw22290 0.0 101011
04:00+25wsw22320 0.0 101111
07:00+28sw11290 0.0 101145
10:00+37s34130 0.0 1011924
13:00+40s77101 0.0 10102893
16:00+40s75110 0.0 10102240
19:00+35s67195 0.0 1010349
22:00+26w454036 0.0 101156
5 august, thu
thu501:00+26w353528 0.0 101149
04:00+25wnw223533 0.0 101012
07:00+28nw24355 0.0 1011102
10:00+35n772693 0.0 10121278
13:00+35n10829100 0.0 10132160
16:00+32nnw6530100 0.0 1012971
19:00+32nnw57331 0.1 1011964
22:00+27n35420 0.1 101275